Content
SEND FEEDBACK

Daily
Averages
Monthly
Summary
United States of America

CAMP QUEZON, GUAM


Home > North America > United States > Guam
Elevation: 269 feet     Latitude: 13 28N     Longitude: 144 48E

WEATHER
 
SELECT A DAY
Number of Records: 208,919;   Date Range: 1/1/95 - 7/23/14
 
SHARE

PRINT THIS DATA

[ ← Previous Day ]
WEATHER ALMANAC - JULY 15, 2013
[ Next Day → ]
[ °C ]   °F
We're sorry. There is no daily almanac available for Camp Quezon, Guam on July 15, 2013.
WEATHER BY HOUR - JULY 15, 2013
[ °C ]   °F
Local TimeTemperatureDewpointHumidityBarometerVisibilityWind DirectionWind SpeedGust SpeedPrecipitationEventsConditions
12:03 AM80.6 °F75.2 °F84 %29.86 in3.0 miEast (80°)8.1 mph0.09 inRainHeavy Rain
12:54 AM81.0 °F75.0 °F82 %29.82 in10.0 miEast (90°)4.6 mph0.10 inOvercast
1:54 AM81.0 °F75.9 °F85 %29.81 in10.0 miCalmPartly Cloudy
2:54 AM81.0 °F75.9 °F85 %29.79 in10.0 miNE (40°)4.6 mphClear
3:54 AM82.0 °F78.1 °F88 %29.80 in10.0 miEast (80°)6.9 mph0.00 inMostly Cloudy
4:54 AM81.0 °F77.0 °F88 %29.79 in10.0 miNE (50°)6.9 mphPartly Cloudy
5:54 AM80.1 °F75.9 °F87 %29.81 in10.0 miNE (40°)4.6 mphClear
6:54 AM81.0 °F77.0 °F88 %29.82 in10.0 miCalmClear
7:54 AM84.9 °F78.1 °F80 %29.82 in10.0 miENE (70°)6.9 mphPartly Cloudy
8:54 AM86.0 °F75.9 °F72 %29.82 in10.0 miEast (80°)9.2 mphPartly Cloudy
9:54 AM88.0 °F75.0 °F65 %29.82 in10.0 miENE (70°)11.5 mphScattered Clouds
10:54 AM88.0 °F75.9 °F67 %29.82 in10.0 miESE (120°)8.1 mphScattered Clouds
11:54 AM88.0 °F73.9 °F63 %29.81 in10.0 miESE (110°)6.9 mphScattered Clouds
12:54 PM90.0 °F75.0 °F61 %29.79 in10.0 miEast (100°)8.1 mphScattered Clouds
1:54 PM90.0 °F73.9 °F59 %29.78 in10.0 miEast (100°)5.8 mphPartly Cloudy
2:54 PM89.1 °F73.9 °F61 %29.78 in10.0 miESE (120°)8.1 mphScattered Clouds
3:54 PM89.1 °F73.9 °F61 %29.76 in10.0 miESE (120°)8.1 mphPartly Cloudy
4:54 PM87.1 °F73.9 °F65 %29.76 in10.0 miESE (110°)8.1 mphPartly Cloudy
5:54 PM84.9 °F75.9 °F74 %29.77 in10.0 miNE (50°)8.1 mph0.00 inRainLight Rain
6:54 PM82.9 °F73.0 °F72 %29.79 in10.0 miSE (140°)3.5 mph0.00 inScattered Clouds
7:54 PM81.0 °F77.0 °F88 %29.82 in10.0 miENE (60°)3.5 mph0.05 inMostly Cloudy
8:54 PM82.9 °F77.0 °F82 %29.83 in10.0 miEast (80°)4.6 mph0.03 inPartly Cloudy
9:54 PM81.0 °F75.9 °F85 %29.83 in10.0 miCalm0.02 inPartly Cloudy
10:22 PM80.6 °F77.0 °F89 %29.86 in9.0 miCalm0.01 inRainLight Rain
10:29 PM82.4 °F77.0 °F84 %29.86 in10.0 miEast (90°)4.6 mph0.01 inRainLight Rain
10:54 PM82.0 °F75.9 °F82 %29.83 in10.0 miEast (80°)6.9 mph0.01 inClear
11:54 PM82.0 °F77.0 °F85 %29.82 in10.0 miEast (90°)3.5 mphPartly Cloudy
Hourly data recorded from PGUM, located miles away from Camp Quezon, Guam







STORIES FROM OUR PARTNERS